Wetterdaten: Sonntag, 21.02.2016
Datum Zeit Temp. A. Mod.Schuppen Aussentemp2 Feuchte A. Luftdruck Regen Wind Richtung Richtung Sonnenschein Helligkeit Solar
21.02.2016 00:01 10,2 C 14,9 C 8,4 C 89 % 1005,8 hPa 0,0 l/m 41,3 km/h (6 Bft) SW67.5 230 0 min 0 lux 0 W/m
21.02.2016 00:06 10,2 C 14,4 C 8,4 C 89 % 1005,8 hPa 0,0 l/m 41,3 km/h (6 Bft) SW67.5 230 0 min 0 lux 0 W/m
21.02.2016 00:11 10,3 C 14,9 C 8,5 C 89 % 1005,8 hPa 0,0 l/m 41,3 km/h (6 Bft) SW67.5 230 0 min 0 lux 0 W/m
21.02.2016 00:16 10,4 C 14,4 C 8,5 C 89 % 1006,8 hPa 0,0 l/m 41,3 km/h (6 Bft) SW67.5 230 0 min 0 lux 0 W/m
21.02.2016 00:21 10,4 C 14,4 C 8,5 C 89 % 1006,8 hPa 0,0 l/m 47,9 km/h (6 Bft) W-SW45 250 0 min 0 lux 0 W/m
21.02.2016 00:26 10,3 C 14,6 C 8,5 C 89 % 1006,8 hPa 0,0 l/m 38,4 km/h (6 Bft) W-SW45 250 0 min 0 lux 0 W/m
21.02.2016 00:30 10,4 C 14,9 C 8,5 C 89 % 1006,8 hPa 0,0 l/m 41,4 km/h (6 Bft) W-SW22.5 240 0 min 0 lux 0 W/m
21.02.2016 00:36 10,4 C 15,7 C 8,6 C 89 % 1006,8 hPa 0,0 l/m 50,3 km/h (7 Bft) W-SW45 250 0 min 0 lux 0 W/m
21.02.2016 00:41 10,3 C 15,3 C 8,6 C 89 % 1006,8 hPa 0,0 l/m 42,4 km/h (6 Bft) SW67.5 225 0 min 0 lux 0 W/m
21.02.2016 00:46 10,3 C 14,9 C 8,6 C 89 % 1006,8 hPa 0,0 l/m 34,3 km/h (5 Bft) W-SW45 250 0 min 0 lux 0 W/m
21.02.2016 00:51 10,3 C 15,0 C 8,6 C 89 % 1006,8 hPa 0,0 l/m 34,0 km/h (5 Bft) W-SW22.5 245 0 min 0 lux 0 W/m
21.02.2016 00:56 10,4 C 15,0 C 8,6 C 89 % 1006,8 hPa 0,0 l/m 46,1 km/h (6 Bft) W-SW22.5 250 0 min 0 lux 0 W/m
21.02.2016 01:00 10,4 C 14,8 C 8,6 C 89 % 1006,8 hPa 0,0 l/m 48,3 km/h (6 Bft) W-SW45 250 0 min 0 lux 0 W/m
21.02.2016 01:06 10,4 C 14,6 C 8,6 C 89 % 1006,8 hPa 0,0 l/m 48,3 km/h (6 Bft) W-SW45 250 0 min 0 lux 0 W/m
21.02.2016 01:11 10,4 C 16,4 C 8,6 C 89 % 1006,8 hPa 0,0 l/m 48,3 km/h (6 Bft) W-SW45 250 0 min 0 lux 0 W/m
21.02.2016 01:16 10,4 C 15,0 C 8,6 C 89 % 1006,8 hPa 0,0 l/m 46,4 km/h (6 Bft) W-SW45 240 0 min 0 lux 0 W/m
21.02.2016 01:20 10,4 C 15,0 C 8,6 C 89 % 1006,8 hPa 0,0 l/m 46,4 km/h (6 Bft) W-SW45 240 0 min 0 lux 0 W/m
21.02.2016 01:26 10,4 C 15,0 C 8,6 C 89 % 1006,8 hPa 0,0 l/m 50,7 km/h (7 Bft) W-SW22.5 250 0 min 0 lux 0 W/m
21.02.2016 01:31 10,4 C 14,7 C 8,7 C 89 % 1006,8 hPa 0,0 l/m 45,6 km/h (6 Bft) W-SW45 245 0 min 0 lux 0 W/m
21.02.2016 01:36 10,4 C 15,2 C 8,7 C 89 % 1006,8 hPa 0,0 l/m 41,5 km/h (6 Bft) W-SW67.5 245 0 min 0 lux 0 W/m
21.02.2016 01:41 10,4 C 14,8 C 8,7 C 89 % 1006,8 hPa 0,0 l/m 41,5 km/h (6 Bft) W-SW67.5 245 0 min 0 lux 0 W/m
21.02.2016 01:46 10,4 C 14,5 C 8,7 C 89 % 1007,8 hPa 0,0 l/m 42,2 km/h (6 Bft) W-SW45 250 0 min 0 lux 0 W/m
21.02.2016 01:50 10,5 C 14,4 C 8,7 C 88 % 1007,8 hPa 0,0 l/m 42,2 km/h (6 Bft) W-SW45 250 0 min 0 lux 0 W/m
21.02.2016 01:56 10,5 C 14,6 C 8,8 C 88 % 1007,8 hPa 0,0 l/m 38,7 km/h (6 Bft) W-SW45 245 0 min 0 lux 0 W/m
21.02.2016 02:01 10,4 C 14,1 C 8,7 C 88 % 1007,8 hPa 0,0 l/m 35,6 km/h (5 Bft) W-SW67.5 245 0 min 0 lux 0 W/m
21.02.2016 02:06 10,5 C 14,1 C 8,7 C 88 % 1007,8 hPa 0,0 l/m 44,3 km/h (6 Bft) W-SW22.5 245 0 min 0 lux 0 W/m
21.02.2016 02:10 10,5 C 14,6 C 8,7 C 88 % 1007,8 hPa 0,0 l/m 44,3 km/h (6 Bft) W-SW22.5 245 0 min 0 lux 0 W/m
21.02.2016 02:16 10,5 C 14,5 C 8,8 C 88 % 1007,8 hPa 0,0 l/m 44,3 km/h (6 Bft) W-SW22.5 245 0 min 0 lux 0 W/m
21.02.2016 02:21 10,5 C 14,6 C 8,7 C 88 % 1007,8 hPa 0,0 l/m 37,9 km/h (6 Bft) W-SW45 245 0 min 0 lux 0 W/m
21.02.2016 02:26 10,5 C 14,5 C 8,8 C 88 % 1007,8 hPa 0,0 l/m 45,3 km/h (6 Bft) W-SW45 250 0 min 0 lux 0 W/m
21.02.2016 02:31 10,5 C 14,3 C 8,8 C 88 % 1007,8 hPa 0,0 l/m 40,2 km/h (6 Bft) W-SW22.5 245 0 min 0 lux 0 W/m
21.02.2016 02:36 10,5 C 14,3 C 8,7 C 88 % 1007,8 hPa 0,0 l/m 36,5 km/h (5 Bft) W-SW45 240 0 min 0 lux 0 W/m
21.02.2016 02:40 10,5 C 14,2 C 8,8 C 88 % 1007,8 hPa 0,0 l/m 42,7 km/h (6 Bft) W-SW45 250 0 min 0 lux 0 W/m
21.02.2016 02:46 10,4 C 14,2 C 8,8 C 88 % 1007,8 hPa 0,0 l/m 38,7 km/h (6 Bft) SW67.5 235 0 min 0 lux 0 W/m
21.02.2016 02:51 10,4 C 14,3 C 8,8 C 88 % 1007,8 hPa 0,0 l/m 43,7 km/h (6 Bft) W-SW67.5 250 0 min 0 lux 0 W/m
21.02.2016 02:56 10,4 C 15,2 C 8,8 C 89 % 1008,8 hPa 0,4 l/m 32,5 km/h (5 Bft) W-SW22.5 255 0 min 0 lux 0 W/m
21.02.2016 03:01 10,4 C 14,6 C 8,8 C 89 % 1008,8 hPa 0,0 l/m 32,5 km/h (5 Bft) W-SW22.5 255 0 min 0 lux 0 W/m
21.02.2016 03:06 10,4 C 14,7 C 8,8 C 89 % 1007,8 hPa 0,0 l/m 33,6 km/h (5 Bft) W-SW22.5 245 0 min 0 lux 0 W/m
21.02.2016 03:11 10,4 C 14,4 C 8,8 C 89 % 1007,8 hPa 0,0 l/m 41,8 km/h (6 Bft) SW45 235 0 min 0 lux 0 W/m
21.02.2016 03:16 10,4 C 14,4 C 8,8 C 89 % 1007,8 hPa 0,0 l/m 41,8 km/h (6 Bft) SW45 235 0 min 0 lux 0 W/m
21.02.2016 03:21 10,4 C 15,4 C 8,8 C 89 % 1007,8 hPa 0,0 l/m 41,8 km/h (6 Bft) SW45 235 0 min 0 lux 0 W/m
21.02.2016 03:26 10,4 C 14,3 C 8,8 C 89 % 1007,8 hPa 0,0 l/m 41,8 km/h (6 Bft) SW45 235 0 min 0 lux 0 W/m
21.02.2016 03:31 10,4 C 14,2 C 8,8 C 89 % 1007,8 hPa 0,0 l/m 41,8 km/h (6 Bft) SW45 235 0 min 0 lux 0 W/m
21.02.2016 03:36 10,4 C 14,3 C 8,8 C 89 % 1007,8 hPa 0,0 l/m 41,8 km/h (6 Bft) SW45 235 0 min 0 lux 0 W/m
21.02.2016 03:41 10,4 C 14,3 C 8,8 C 89 % 1007,8 hPa 0,0 l/m 41,8 km/h (6 Bft) SW45 235 0 min 0 lux 0 W/m
21.02.2016 03:46 10,4 C 14,3 C 8,8 C 89 % 1007,8 hPa 0,0 l/m 41,8 km/h (6 Bft) SW45 235 0 min 0 lux 0 W/m
21.02.2016 03:51 10,3 C 15,3 C 8,8 C 89 % 1008,8 hPa 0,0 l/m 41,8 km/h (6 Bft) SW45 235 0 min 0 lux 0 W/m
21.02.2016 03:55 10,3 C 14,3 C 8,8 C 89 % 1008,8 hPa 0,0 l/m 38,3 km/h (6 Bft) W-SW45 240 0 min 0 lux 0 W/m
21.02.2016 04:01 10,3 C 14,4 C 8,8 C 89 % 1007,8 hPa 0,0 l/m 38,7 km/h (6 Bft) W-SW22.5 240 0 min 0 lux 0 W/m
21.02.2016 04:06 10,3 C 14,4 C 8,8 C 89 % 1008,8 hPa 0,0 l/m 38,7 km/h (6 Bft) W-SW22.5 240 0 min 0 lux 0 W/m
21.02.2016 04:11 10,3 C 14,2 C 8,8 C 89 % 1008,8 hPa 0,0 l/m 39,2 km/h (6 Bft) W-SW45 245 0 min 0 lux 0 W/m
21.02.2016 04:16 10,3 C 14,1 C 8,8 C 89 % 1008,8 hPa 0,0 l/m 31,0 km/h (5 Bft) W-SW45 250 0 min 0 lux 0 W/m
21.02.2016 04:21 10,3 C 13,9 C 8,8 C 89 % 1008,8 hPa 0,0 l/m 27,4 km/h (5 Bft) W-SW45 245 0 min 0 lux 0 W/m
21.02.2016 04:26 10,3 C 13,4 C 8,8 C 89 % 1008,8 hPa 0,0 l/m 27,4 km/h (5 Bft) W-SW45 245 0 min 0 lux 0 W/m
21.02.2016 04:31 10,4 C 13,2 C 8,8 C 88 % 1008,8 hPa 0,0 l/m 27,4 km/h (5 Bft) W-SW45 245 0 min 0 lux 0 W/m
21.02.2016 04:36 10,4 C 13,2 C 8,8 C 88 % 1008,8 hPa 0,0 l/m 27,4 km/h (5 Bft) W-SW45 245 0 min 0 lux 0 W/m
21.02.2016 04:40 10,4 C 13,2 C 8,8 C 88 % 1008,8 hPa 0,0 l/m 38,2 km/h (6 Bft) W-SW22.5 255 0 min 0 lux 0 W/m
21.02.2016 04:46 10,4 C 13,4 C 8,8 C 88 % 1008,8 hPa 0,0 l/m 39,5 km/h (6 Bft) W-SW22.5 245 0 min 0 lux 0 W/m
21.02.2016 04:51 10,4 C 14,0 C 8,8 C 88 % 1008,8 hPa 0,0 l/m 42,2 km/h (6 Bft) W45 260 0 min 0 lux 0 W/m
21.02.2016 04:56 10,4 C 14,0 C 8,8 C 88 % 1008,8 hPa 0,0 l/m 34,9 km/h (5 Bft) W-SW22.5 250 0 min 0 lux 0 W/m
21.02.2016 05:01 10,4 C 14,3 C 8,8 C 88 % 1008,8 hPa 0,0 l/m 41,4 km/h (6 Bft) W-SW22.5 250 0 min 0 lux 0 W/m
21.02.2016 05:06 10,4 C 14,3 C 8,8 C 88 % 1008,8 hPa 0,0 l/m 40,0 km/h (6 Bft) W-SW45 250 0 min 0 lux 0 W/m
21.02.2016 05:11 10,3 C 14,5 C 8,8 C 89 % 1008,8 hPa 0,4 l/m 34,1 km/h (5 Bft) W-SW45 250 0 min 0 lux 0 W/m
21.02.2016 05:16 10,3 C 14,4 C 8,8 C 89 % 1008,8 hPa 0,0 l/m 31,2 km/h (5 Bft) W-SW67.5 245 0 min 0 lux 0 W/m
21.02.2016 05:21 10,2 C 14,3 C 8,8 C 89 % 1008,8 hPa 0,0 l/m 38,6 km/h (6 Bft) W-SW22.5 250 0 min 0 lux 0 W/m
21.02.2016 05:26 10,3 C 14,4 C 8,8 C 89 % 1008,8 hPa 0,0 l/m 38,5 km/h (6 Bft) W-SW45 245 0 min 0 lux 0 W/m
21.02.2016 05:31 10,3 C 14,3 C 8,9 C 89 % 1008,8 hPa 0,0 l/m 32,6 km/h (5 Bft) W-SW45 240 0 min 0 lux 0 W/m
21.02.2016 05:36 10,2 C 14,2 C 8,9 C 89 % 1008,8 hPa 0,0 l/m 34,4 km/h (5 Bft) SW45 235 0 min 0 lux 0 W/m
21.02.2016 05:41 10,2 C 14,2 C 8,9 C 89 % 1008,8 hPa 0,0 l/m 34,4 km/h (5 Bft) SW45 235 0 min 0 lux 0 W/m
21.02.2016 05:46 10,2 C 14,3 C 8,8 C 89 % 1008,8 hPa 0,0 l/m 34,4 km/h (5 Bft) SW45 235 0 min 0 lux 0 W/m
21.02.2016 05:51 10,2 C 14,4 C 8,9 C 89 % 1008,8 hPa 0,0 l/m 34,4 km/h (5 Bft) SW45 235 0 min 0 lux 0 W/m
21.02.2016 05:55 10,3 C 14,0 C 8,9 C 89 % 1009,8 hPa 0,0 l/m 32,1 km/h (5 Bft) W-SW22.5 245 0 min 0 lux 0 W/m
21.02.2016 06:01 10,3 C 14,0 C 8,9 C 89 % 1009,8 hPa 0,0 l/m 32,1 km/h (5 Bft) W-SW22.5 245 0 min 0 lux 0 W/m
21.02.2016 06:06 10,3 C 13,9 C 8,8 C 89 % 1009,8 hPa 0,0 l/m 32,1 km/h (5 Bft) W-SW22.5 245 0 min 0 lux 0 W/m
21.02.2016 06:11 10,3 C 14,1 C 8,8 C 89 % 1009,8 hPa 0,0 l/m 32,1 km/h (5 Bft) W-SW22.5 245 0 min 0 lux 0 W/m
21.02.2016 06:16 10,3 C 14,1 C 8,8 C 89 % 1009,8 hPa 0,0 l/m 32,1 km/h (5 Bft) W-SW22.5 245 0 min 0 lux 0 W/m
21.02.2016 06:21 10,3 C 13,9 C 8,8 C 89 % 1009,8 hPa 0,0 l/m 32,1 km/h (5 Bft) W-SW22.5 245 0 min 0 lux 0 W/m
21.02.2016 06:26 10,3 C 13,9 C 8,8 C 89 % 1009,8 hPa 0,0 l/m 34,8 km/h (5 Bft) W-SW22.5 240 0 min 0 lux 0 W/m
21.02.2016 06:31 10,3 C 14,0 C 8,9 C 89 % 1009,8 hPa 0,0 l/m 33,1 km/h (5 Bft) SW45 235 0 min 0 lux 0 W/m
21.02.2016 06:36 10,3 C 13,8 C 8,9 C 89 % 1008,8 hPa 0,0 l/m 33,1 km/h (5 Bft) SW45 235 0 min 0 lux 0 W/m
21.02.2016 06:40 10,3 C 13,9 C 8,8 C 89 % 1008,8 hPa 0,0 l/m 33,1 km/h (5 Bft) SW45 235 0 min 0 lux 0 W/m
21.02.2016 06:46 10,3 C 13,6 C 8,8 C 89 % 1008,8 hPa 0,0 l/m 36,5 km/h (5 Bft) W-SW45 240 0 min 0 lux 0 W/m
21.02.2016 06:51 10,2 C 14,0 C 8,8 C 89 % 1008,8 hPa 0,0 l/m 35,7 km/h (5 Bft) W-SW22.5 250 0 min 0 lux 0 W/m
21.02.2016 06:56 10,3 C 14,0 C 8,9 C 89 % 1008,8 hPa 0,0 l/m 33,1 km/h (5 Bft) SW45 235 0 min 0 lux 0 W/m
21.02.2016 07:01 10,3 C 13,4 C 8,9 C 89 % 1009,8 hPa 0,0 l/m 34,3 km/h (5 Bft) W-SW45 240 0 min 0 lux 0 W/m
21.02.2016 07:06 10,3 C 13,2 C 8,9 C 89 % 1009,8 hPa 0,0 l/m 34,3 km/h (5 Bft) W-SW45 240 0 min 0 lux 0 W/m
21.02.2016 07:11 10,3 C 13,1 C 8,9 C 89 % 1009,8 hPa 0,0 l/m 34,3 km/h (5 Bft) W-SW45 240 0 min 0 lux 0 W/m
21.02.2016 07:16 10,3 C 13,3 C 8,9 C 88 % 1009,8 hPa 0,0 l/m 36,7 km/h (5 Bft) SW67.5 235 0 min 0 lux 0 W/m
21.02.2016 07:21 10,3 C 13,4 C 8,9 C 88 % 1009,8 hPa 0,0 l/m 36,7 km/h (5 Bft) SW67.5 235 0 min 0 lux 0 W/m
21.02.2016 07:26 10,2 C 13,2 C 8,9 C 88 % 1009,8 hPa 0,0 l/m 34,5 km/h (5 Bft) W-SW22.5 240 0 min 0 lux 0 W/m
21.02.2016 07:31 10,2 C 13,4 C 8,9 C 89 % 1009,8 hPa 0,0 l/m 34,5 km/h (5 Bft) W-SW22.5 240 0 min 61 lux 0 W/m
21.02.2016 07:36 10,2 C 13,4 C 8,9 C 89 % 1009,8 hPa 0,0 l/m 34,5 km/h (5 Bft) W-SW22.5 240 0 min 81 lux 0 W/m
21.02.2016 07:41 10,2 C 13,5 C 8,9 C 89 % 1009,8 hPa 0,0 l/m 34,5 km/h (5 Bft) W-SW22.5 240 0 min 108 lux 0 W/m
21.02.2016 07:46 10,2 C 13,5 C 8,8 C 89 % 1009,8 hPa 0,0 l/m 34,5 km/h (5 Bft) W-SW22.5 240 0 min 198 lux 1 W/m
21.02.2016 07:51 10,2 C 13,6 C 8,9 C 89 % 1009,8 hPa 0,0 l/m 34,5 km/h (5 Bft) W-SW22.5 240 0 min 231 lux 2 W/m
21.02.2016 07:55 10,2 C 13,3 C 8,9 C 89 % 1009,8 hPa 0,0 l/m 34,5 km/h (5 Bft) W-SW22.5 240 0 min 253 lux 2 W/m
21.02.2016 08:01 10,2 C 13,2 C 8,9 C 89 % 1009,8 hPa 0,0 l/m 34,5 km/h (5 Bft) W-SW22.5 240 0 min 375 lux 3 W/m
21.02.2016 08:06 10,2 C 13,2 C 8,9 C 89 % 1009,8 hPa 0,0 l/m 35,4 km/h (5 Bft) SW67.5 225 0 min 563 lux 4 W/m
21.02.2016 08:11 10,2 C 12,9 C 8,9 C 88 % 1009,8 hPa 0,0 l/m 36,9 km/h (5 Bft) SW67.5 230 0 min 567 lux 4 W/m
21.02.2016 08:16 10,2 C 12,7 C 8,9 C 88 % 1009,8 hPa 0,0 l/m 37,5 km/h (5 Bft) W-SW22.5 245 0 min 555 lux 4 W/m
21.02.2016 08:21 10,3 C 12,6 C 8,9 C 88 % 1009,8 hPa 0,0 l/m 38,9 km/h (6 Bft) SW45 230 0 min 702 lux 5 W/m
21.02.2016 08:26 10,3 C 12,5 C 8,9 C 88 % 1009,8 hPa 0,0 l/m 38,9 km/h (6 Bft) SW45 230 0 min 746 lux 5 W/m
21.02.2016 08:31 10,3 C 12,5 C 8,9 C 88 % 1009,8 hPa 0,0 l/m 44,2 km/h (6 Bft) W-SW45 250 0 min 1,02 klux 7 W/m
21.02.2016 08:36 10,4 C 12,7 C 8,9 C 87 % 1009,8 hPa 0,0 l/m 46,2 km/h (6 Bft) W-SW45 240 0 min 1,09 klux 7 W/m
21.02.2016 08:40 10,4 C 12,3 C 8,9 C 87 % 1009,8 hPa 0,0 l/m 36,0 km/h (5 Bft) W-SW45 240 0 min 1,06 klux 7 W/m
21.02.2016 08:46 10,4 C 12,2 C 8,9 C 87 % 1009,8 hPa 0,0 l/m 38,6 km/h (6 Bft) W-SW45 240 0 min 1,02 klux 7 W/m
21.02.2016 08:51 10,4 C 12,2 C 8,9 C 87 % 1009,8 hPa 0,0 l/m 38,1 km/h (6 Bft) W-SW22.5 240 0 min 928 lux 6 W/m
21.02.2016 08:56 10,4 C 12,1 C 9,0 C 87 % 1009,8 hPa 0,0 l/m 41,7 km/h (6 Bft) SW45 235 0 min 1,29 klux 9 W/m
21.02.2016 09:01 10,5 C 12,1 C 8,9 C 86 % 1009,8 hPa 0,0 l/m 36,2 km/h (5 Bft) SW67.5 225 0 min 1,36 klux 9 W/m
21.02.2016 09:06 10,5 C 12,1 C 8,9 C 86 % 1009,8 hPa 0,0 l/m 40,2 km/h (6 Bft) W-SW22.5 245 0 min 1,37 klux 9 W/m
21.02.2016 09:11 10,6 C 12,1 C 9,0 C 86 % 1009,8 hPa 0,0 l/m 43,8 km/h (6 Bft) W-SW22.5 240 0 min 1,50 klux 10 W/m
21.02.2016 09:16 10,6 C 12,1 C 9,0 C 86 % 1009,8 hPa 0,0 l/m 37,3 km/h (5 Bft) SW45 235 0 min 1,83 klux 13 W/m
21.02.2016 09:21 10,5 C 12,1 C 9,0 C 86 % 1009,8 hPa 0,0 l/m 39,4 km/h (6 Bft) SW67.5 235 0 min 2,13 klux 15 W/m
21.02.2016 09:26 10,6 C 12,1 C 9,0 C 86 % 1009,8 hPa 0,0 l/m 45,2 km/h (6 Bft) W-SW45 240 0 min 2,53 klux 17 W/m
21.02.2016 09:31 10,6 C 12,3 C 9,0 C 86 % 1009,8 hPa 0,0 l/m 43,7 km/h (6 Bft) W-SW67.5 250 0 min 2,86 klux 20 W/m
21.02.2016 09:36 10,6 C 12,2 C 9,0 C 86 % 1009,8 hPa 0,0 l/m 43,7 km/h (6 Bft) W-SW67.5 250 0 min 2,89 klux 20 W/m
21.02.2016 09:41 10,6 C 12,2 C 9,0 C 86 % 1009,8 hPa 0,0 l/m 34,2 km/h (5 Bft) W-SW22.5 245 0 min 2,70 klux 18 W/m
21.02.2016 09:46 10,6 C 12,2 C 9,0 C 86 % 1009,8 hPa 0,0 l/m 42,6 km/h (6 Bft) W-SW45 240 0 min 3,30 klux 23 W/m
21.02.2016 09:51 10,6 C 12,3 C 9,0 C 86 % 1009,8 hPa 0,0 l/m 36,0 km/h (5 Bft) W-SW45 250 0 min 3,30 klux 23 W/m
21.02.2016 09:56 10,6 C 12,4 C 9,0 C 86 % 1009,8 hPa 0,0 l/m 37,0 km/h (5 Bft) SW45 235 0 min 3,76 klux 26 W/m
21.02.2016 10:01 10,7 C 12,6 C 9,0 C 86 % 1009,8 hPa 0,0 l/m 39,9 km/h (6 Bft) W-SW45 240 0 min 3,76 klux 26 W/m
21.02.2016 10:06 10,7 C 12,7 C 9,1 C 85 % 1009,8 hPa 0,0 l/m 39,9 km/h (6 Bft) W-SW45 240 0 min 3,76 klux 26 W/m
21.02.2016 10:11 10,8 C 12,9 C 9,1 C 85 % 1009,8 hPa 0,0 l/m 36,9 km/h (5 Bft) W-SW45 240 0 min 3,76 klux 26 W/m
21.02.2016 10:16 10,8 C 12,9 C 9,1 C 85 % 1009,8 hPa 0,0 l/m 41,4 km/h (6 Bft) W-SW45 245 0 min 3,76 klux 26 W/m
21.02.2016 10:21 10,8 C 12,8 C 9,1 C 85 % 1009,8 hPa 0,0 l/m 38,2 km/h (6 Bft) W-SW67.5 240 0 min 3,76 klux 26 W/m
21.02.2016 10:26 10,8 C 12,8 C 9,0 C 85 % 1009,8 hPa 0,0 l/m 51,4 km/h (7 Bft) W-SW45 240 0 min 3,76 klux 26 W/m
21.02.2016 10:31 10,8 C 12,7 C 9,1 C 85 % 1009,8 hPa 0,0 l/m 46,0 km/h (6 Bft) SW45 230 0 min 3,76 klux 26 W/m
21.02.2016 10:36 10,8 C 12,7 C 9,1 C 84 % 1009,8 hPa 0,0 l/m 50,7 km/h (7 Bft) W-SW67.5 240 0 min 3,76 klux 26 W/m
21.02.2016 10:40 10,9 C 12,6 C 9,1 C 84 % 1009,8 hPa 0,0 l/m 44,8 km/h (6 Bft) W-SW45 250 0 min 3,76 klux 26 W/m
21.02.2016 10:46 10,8 C 12,4 C 9,1 C 84 % 1009,8 hPa 0,0 l/m 44,8 km/h (6 Bft) W-SW45 250 0 min 3,76 klux 26 W/m
21.02.2016 10:51 10,8 C 12,2 C 9,1 C 84 % 1009,8 hPa 0,0 l/m 42,9 km/h (6 Bft) W-SW22.5 240 0 min 3,76 klux 26 W/m
21.02.2016 10:56 10,7 C 12,2 C 9,1 C 85 % 1009,8 hPa 0,0 l/m 37,2 km/h (5 Bft) W-SW67.5 245 0 min 3,76 klux 26 W/m
21.02.2016 11:01 10,7 C 12,5 C 9,1 C 85 % 1009,8 hPa 0,0 l/m 36,6 km/h (5 Bft) SW45 230 0 min 3,76 klux 26 W/m
21.02.2016 11:06 10,5 C 12,6 C 9,1 C 86 % 1009,8 hPa 0,0 l/m 39,6 km/h (6 Bft) W-SW67.5 245 0 min 3,76 klux 26 W/m
21.02.2016 11:11 10,5 C 12,6 C 9,1 C 87 % 1009,8 hPa 0,0 l/m 39,2 km/h (6 Bft) W-SW67.5 240 0 min 5,39 klux 37 W/m
21.02.2016 11:16 10,5 C 12,9 C 9,1 C 87 % 1009,8 hPa 0,0 l/m 39,0 km/h (6 Bft) SW67.5 230 0 min 5,39 klux 37 W/m
21.02.2016 11:21 10,6 C 12,8 C 9,1 C 87 % 1009,8 hPa 0,0 l/m 40,5 km/h (6 Bft) W-SW45 245 0 min 5,39 klux 37 W/m
21.02.2016 11:25 10,6 C 12,8 C 9,1 C 87 % 1009,8 hPa 0,0 l/m 40,6 km/h (6 Bft) SW67.5 225 0 min 5,39 klux 37 W/m
21.02.2016 11:31 10,6 C 12,7 C 9,1 C 86 % 1009,8 hPa 0,0 l/m 42,8 km/h (6 Bft) SW22.5 235 0 min 5,39 klux 37 W/m
21.02.2016 11:36 10,6 C 12,7 C 9,1 C 86 % 1009,8 hPa 0,0 l/m 45,0 km/h (6 Bft) SW67.5 230 0 min 5,39 klux 37 W/m
21.02.2016 11:41 10,6 C 12,6 C 9,1 C 86 % 1009,8 hPa 0,0 l/m 39,7 km/h (6 Bft) W-SW67.5 240 0 min 5,39 klux 37 W/m
21.02.2016 11:46 10,7 C 12,6 C 9,2 C 86 % 1009,8 hPa 0,0 l/m 41,8 km/h (6 Bft) SW45 230 0 min 5,39 klux 37 W/m
21.02.2016 11:51 10,7 C 12,6 C 9,1 C 86 % 1009,8 hPa 0,0 l/m 43,9 km/h (6 Bft) SW45 235 0 min 5,39 klux 37 W/m
21.02.2016 11:56 10,7 C 12,6 C 9,2 C 86 % 1009,8 hPa 0,0 l/m 42,5 km/h (6 Bft) SW67.5 225 0 min 5,39 klux 37 W/m
21.02.2016 12:01 10,7 C 12,6 C 9,2 C 86 % 1009,8 hPa 0,0 l/m 42,5 km/h (6 Bft) SW67.5 225 0 min 5,39 klux 37 W/m
21.02.2016 12:06 10,7 C 12,8 C 9,2 C 86 % 1009,8 hPa 0,0 l/m 42,5 km/h (6 Bft) SW67.5 225 0 min 5,39 klux 37 W/m
21.02.2016 12:10 10,7 C 12,9 C 9,2 C 86 % 1009,8 hPa 0,0 l/m 37,2 km/h (5 Bft) SW45 230 0 min 5,39 klux 37 W/m
21.02.2016 12:16 10,7 C 12,9 C 9,4 C 87 % 1009,8 hPa 0,0 l/m 37,2 km/h (5 Bft) SW45 230 0 min 5,39 klux 37 W/m
21.02.2016 12:21 10,6 C 12,9 C 9,2 C 87 % 1009,8 hPa 0,0 l/m 37,2 km/h (5 Bft) SW45 230 0 min 5,39 klux 37 W/m
21.02.2016 12:26 10,6 C 13,0 C 9,2 C 87 % 1009,8 hPa 0,0 l/m 37,2 km/h (5 Bft) SW45 230 0 min 5,39 klux 37 W/m
21.02.2016 12:31 10,7 C 13,0 C 9,2 C 87 % 1008,8 hPa 0,0 l/m 37,2 km/h (5 Bft) SW45 230 0 min 5,39 klux 37 W/m
21.02.2016 12:36 10,6 C 13,1 C 9,2 C 87 % 1008,8 hPa 0,0 l/m 31,7 km/h (5 Bft) SW45 225 0 min 5,39 klux 37 W/m
21.02.2016 12:41 10,6 C 13,0 C 9,2 C 87 % 1008,8 hPa 0,0 l/m 39,8 km/h (6 Bft) SW45 230 0 min 5,41 klux 37 W/m
21.02.2016 12:46 10,6 C 13,1 C 9,2 C 87 % 1008,8 hPa 0,0 l/m 43,5 km/h (6 Bft) SW45 235 0 min 3,88 klux 27 W/m
21.02.2016 12:51 10,5 C 12,8 C 9,2 C 87 % 1008,8 hPa 0,0 l/m 45,5 km/h (6 Bft) W-SW45 240 0 min 4,00 klux 27 W/m
21.02.2016 12:56 10,6 C 12,7 C 9,2 C 87 % 1008,8 hPa 0,0 l/m 45,7 km/h (6 Bft) W-SW22.5 240 0 min 3,61 klux 25 W/m
21.02.2016 13:01 10,6 C 12,7 C 9,2 C 87 % 1008,8 hPa 0,0 l/m 43,8 km/h (6 Bft) W-SW45 240 0 min 3,93 klux 27 W/m
21.02.2016 13:06 10,8 C 12,7 C 9,2 C 87 % 1008,8 hPa 0,0 l/m 43,8 km/h (6 Bft) W-SW45 240 0 min 5,01 klux 34 W/m
21.02.2016 13:11 10,7 C 12,7 C 9,2 C 87 % 1008,8 hPa 0,0 l/m 49,0 km/h (7 Bft) W-SW22.5 245 0 min 4,93 klux 34 W/m
21.02.2016 13:16 10,8 C 12,8 C 9,2 C 86 % 1008,8 hPa 0,0 l/m 49,0 km/h (7 Bft) W-SW22.5 245 0 min 4,51 klux 31 W/m
21.02.2016 13:21 10,8 C 12,7 C 9,2 C 86 % 1008,8 hPa 0,0 l/m 52,8 km/h (7 Bft) W-SW45 245 0 min 5,42 klux 37 W/m
21.02.2016 13:26 10,9 C 12,8 C 9,3 C 86 % 1008,8 hPa 0,0 l/m 43,3 km/h (6 Bft) SW67.5 235 0 min 6,55 klux 45 W/m
21.02.2016 13:31 10,9 C 12,5 C 9,3 C 86 % 1008,8 hPa 0,0 l/m 45,3 km/h (6 Bft) SW45 235 0 min 2,45 klux 17 W/m
21.02.2016 13:36 10,9 C 12,5 C 9,3 C 86 % 1008,8 hPa 0,0 l/m 47,0 km/h (6 Bft) SW67.5 225 0 min 3,41 klux 23 W/m
21.02.2016 13:41 11,0 C 12,6 C 9,3 C 86 % 1008,8 hPa 0,0 l/m 47,0 km/h (6 Bft) SW67.5 225 0 min 4,62 klux 32 W/m
21.02.2016 13:46 11,0 C 12,5 C 9,3 C 86 % 1008,8 hPa 0,0 l/m 47,0 km/h (6 Bft) SW67.5 225 0 min 3,56 klux 24 W/m
21.02.2016 13:50 11,1 C 12,5 C 9,3 C 85 % 1008,8 hPa 0,0 l/m 48,0 km/h (6 Bft) W-SW45 250 0 min 3,90 klux 27 W/m
21.02.2016 13:56 11,1 C 12,5 C 9,3 C 85 % 1008,8 hPa 0,0 l/m 44,7 km/h (6 Bft) W-SW67.5 240 0 min 7,20 klux 49 W/m
21.02.2016 14:01 11,1 C 12,8 C 9,3 C 85 % 1008,8 hPa 0,0 l/m 48,6 km/h (6 Bft) W-SW67.5 240 0 min 5,86 klux 40 W/m
21.02.2016 14:06 11,1 C 12,7 C 9,3 C 85 % 1008,8 hPa 0,0 l/m 48,6 km/h (6 Bft) W-SW67.5 240 0 min 4,03 klux 28 W/m
21.02.2016 14:10 11,0 C 12,6 C 9,3 C 86 % 1007,7 hPa 0,0 l/m 55,1 km/h (7 Bft) SW67.5 215 0 min 4,84 klux 33 W/m
21.02.2016 14:16 11,0 C 12,6 C 9,3 C 86 % 1007,7 hPa 0,0 l/m 55,1 km/h (7 Bft) SW67.5 215 0 min 3,75 klux 26 W/m
21.02.2016 14:21 11,1 C 12,8 C 9,3 C 86 % 1007,7 hPa 0,0 l/m 45,5 km/h (6 Bft) W-SW45 240 0 min 5,28 klux 36 W/m
21.02.2016 14:26 11,1 C 12,8 C 9,3 C 86 % 1007,7 hPa 0,0 l/m 47,3 km/h (6 Bft) W-SW22.5 240 0 min 5,57 klux 38 W/m
21.02.2016 14:31 11,2 C 12,8 C 9,3 C 86 % 1007,7 hPa 0,0 l/m 47,3 km/h (6 Bft) W-SW22.5 240 0 min 6,23 klux 43 W/m
21.02.2016 14:36 11,2 C 12,9 C 9,4 C 85 % 1007,7 hPa 0,0 l/m 54,2 km/h (7 Bft) SW45 235 0 min 6,05 klux 41 W/m
21.02.2016 14:41 11,2 C 12,9 C 9,4 C 85 % 1007,7 hPa 0,0 l/m 47,3 km/h (6 Bft) SW45 235 0 min 6,21 klux 42 W/m
21.02.2016 14:46 11,2 C 12,8 C 9,4 C 85 % 1007,7 hPa 0,0 l/m 48,7 km/h (7 Bft) W-SW45 245 0 min 2,72 klux 19 W/m
21.02.2016 14:51 11,2 C 12,7 C 9,4 C 85 % 1007,7 hPa 0,0 l/m 48,7 km/h (7 Bft) W-SW45 245 0 min 4,34 klux 30 W/m
21.02.2016 14:56 11,3 C 12,7 C 9,4 C 85 % 1007,7 hPa 0,0 l/m 48,7 km/h (7 Bft) W-SW45 245 0 min 3,24 klux 22 W/m
21.02.2016 15:01 11,3 C 12,7 C 9,4 C 85 % 1007,7 hPa 0,0 l/m 48,2 km/h (6 Bft) SW67.5 235 0 min 2,65 klux 18 W/m
21.02.2016 15:06 11,3 C 12,6 C 9,4 C 85 % 1007,7 hPa 0,0 l/m 48,2 km/h (6 Bft) SW67.5 235 0 min 5,53 klux 38 W/m
21.02.2016 15:11 11,3 C 12,8 C 9,4 C 85 % 1007,7 hPa 0,0 l/m 47,0 km/h (6 Bft) SW67.5 230 0 min 5,70 klux 39 W/m
21.02.2016 15:16 11,4 C 12,7 C 9,4 C 85 % 1007,7 hPa 0,0 l/m 48,5 km/h (6 Bft) SW45 235 0 min 5,04 klux 34 W/m
21.02.2016 15:21 11,4 C 12,7 C 9,4 C 85 % 1007,7 hPa 0,0 l/m 48,5 km/h (6 Bft) SW45 235 0 min 3,78 klux 26 W/m
21.02.2016 15:26 11,4 C 12,6 C 9,5 C 85 % 1007,7 hPa 0,0 l/m 48,5 km/h (6 Bft) SW45 235 0 min 3,65 klux 25 W/m
21.02.2016 15:31 11,4 C 12,6 C 9,5 C 85 % 1007,7 hPa 0,0 l/m 48,5 km/h (6 Bft) SW45 235 0 min 3,35 klux 23 W/m
21.02.2016 15:36 11,4 C 12,6 C 9,4 C 84 % 1007,7 hPa 0,0 l/m 48,5 km/h (6 Bft) SW45 235 0 min 3,46 klux 24 W/m
21.02.2016 15:41 11,4 C 12,6 C 9,5 C 84 % 1007,7 hPa 0,0 l/m 40,5 km/h (6 Bft) SW45 230 0 min 3,30 klux 23 W/m
21.02.2016 15:46 11,5 C 12,6 C 9,5 C 84 % 1007,7 hPa 0,0 l/m 40,5 km/h (6 Bft) SW45 230 0 min 2,83 klux 19 W/m
21.02.2016 15:50 11,5 C 12,5 C 9,5 C 84 % 1007,7 hPa 0,0 l/m 40,5 km/h (6 Bft) SW45 230 0 min 2,24 klux 15 W/m
21.02.2016 15:56 11,6 C 12,8 C 9,5 C 84 % 1007,7 hPa 0,0 l/m 40,5 km/h (6 Bft) SW45 230 0 min 3,70 klux 25 W/m
21.02.2016 16:01 11,7 C 12,9 C 9,5 C 84 % 1007,7 hPa 0,0 l/m 52,1 km/h (7 Bft) SW67.5 220 0 min 3,09 klux 21 W/m
21.02.2016 16:06 11,8 C 13,0 C 9,5 C 83 % 1007,7 hPa 0,0 l/m 42,3 km/h (6 Bft) SW67.5 225 0 min 3,10 klux 21 W/m
21.02.2016 16:11 11,8 C 13,0 C 9,5 C 83 % 1007,7 hPa 0,0 l/m 42,3 km/h (6 Bft) SW67.5 225 0 min 3,14 klux 21 W/m
21.02.2016 16:16 11,8 C 12,9 C 9,6 C 83 % 1007,7 hPa 0,0 l/m 49,7 km/h (7 Bft) SW67.5 235 0 min 2,21 klux 15 W/m
21.02.2016 16:21 11,8 C 12,9 C 9,5 C 83 % 1007,7 hPa 0,0 l/m 49,7 km/h (7 Bft) SW67.5 235 0 min 2,98 klux 20 W/m
21.02.2016 16:26 12,0 C 12,9 C 9,6 C 82 % 1007,7 hPa 0,0 l/m 49,7 km/h (7 Bft) SW67.5 235 0 min 3,92 klux 27 W/m
21.02.2016 16:31 12,0 C 13,1 C 9,6 C 82 % 1007,7 hPa 0,0 l/m 57,8 km/h (7 Bft) SW67.5 225 0 min 3,81 klux 26 W/m
21.02.2016 16:35 12,1 C 13,0 C 9,6 C 82 % 1007,7 hPa 0,0 l/m 52,5 km/h (7 Bft) W-SW45 240 0 min 3,02 klux 21 W/m
21.02.2016 16:41 12,1 C 13,1 C 9,6 C 82 % 1007,7 hPa 0,0 l/m 52,5 km/h (7 Bft) W-SW45 240 0 min 5,23 klux 36 W/m
21.02.2016 16:46 12,1 C 13,3 C 9,6 C 81 % 1007,7 hPa 0,0 l/m 47,2 km/h (6 Bft) SW45 230 0 min 6,40 klux 44 W/m
21.02.2016 16:51 12,1 C 13,1 C 9,6 C 81 % 1007,7 hPa 0,0 l/m 41,7 km/h (6 Bft) W-SW45 240 0 min 2,65 klux 18 W/m
21.02.2016 16:56 12,2 C 13,0 C 9,6 C 81 % 1007,7 hPa 0,0 l/m 41,3 km/h (6 Bft) SW45 230 0 min 2,09 klux 14 W/m
21.02.2016 17:01 12,2 C 12,9 C 9,6 C 81 % 1007,7 hPa 0,0 l/m 52,7 km/h (7 Bft) SW45 235 0 min 1,59 klux 11 W/m
21.02.2016 17:06 12,2 C 12,9 C 9,6 C 81 % 1007,7 hPa 0,0 l/m 48,7 km/h (7 Bft) W-SW67.5 240 0 min 1,41 klux 10 W/m
21.02.2016 17:11 12,3 C 12,9 C 9,6 C 80 % 1007,7 hPa 0,0 l/m 51,7 km/h (7 Bft) SW67.5 230 0 min 1,41 klux 10 W/m
21.02.2016 17:16 12,3 C 12,8 C 9,6 C 80 % 1007,7 hPa 0,0 l/m 50,4 km/h (7 Bft) W-SW45 250 0 min 874 lux 6 W/m
21.02.2016 17:20 12,4 C 12,8 C 9,6 C 80 % 1007,7 hPa 0,0 l/m 45,4 km/h (6 Bft) W-SW67.5 245 0 min 554 lux 4 W/m
21.02.2016 17:26 12,4 C 12,7 C 9,6 C 80 % 1007,7 hPa 0,0 l/m 49,7 km/h (7 Bft) SW67.5 235 0 min 393 lux 3 W/m
21.02.2016 17:31 12,4 C 12,7 C 9,6 C 80 % 1007,7 hPa 0,0 l/m 47,7 km/h (6 Bft) SW45 235 0 min 332 lux 2 W/m
21.02.2016 17:36 12,4 C 12,7 C 9,6 C 80 % 1007,7 hPa 0,0 l/m 58,5 km/h (7 Bft) SW22.5 235 0 min 378 lux 3 W/m
21.02.2016 17:41 12,4 C 12,7 C 9,7 C 80 % 1007,7 hPa 0,0 l/m 46,8 km/h (6 Bft) SW67.5 235 0 min 455 lux 3 W/m
21.02.2016 17:46 12,5 C 12,7 C 9,7 C 79 % 1007,7 hPa 0,0 l/m 58,8 km/h (7 Bft) SW67.5 225 0 min 319 lux 2 W/m
21.02.2016 17:51 12,4 C 12,7 C 9,6 C 80 % 1007,7 hPa 0,0 l/m 55,8 km/h (7 Bft) W-SW45 240 0 min 229 lux 2 W/m
21.02.2016 17:56 12,5 C 12,7 C 9,7 C 79 % 1007,7 hPa 0,0 l/m 51,4 km/h (7 Bft) SW45 230 0 min 140 lux 0 W/m
21.02.2016 18:01 12,4 C 12,6 C 9,7 C 80 % 1007,7 hPa 0,0 l/m 50,5 km/h (7 Bft) W-SW67.5 240 0 min 86 lux 0 W/m
21.02.2016 18:05 12,4 C 12,6 C 10,6 C 79 % 1007,7 hPa 0,0 l/m 47,9 km/h (6 Bft) SW45 230 0 min 41 lux 0 W/m
21.02.2016 18:11 12,5 C 12,6 C 10,6 C 79 % 1007,7 hPa 0,0 l/m 42,0 km/h (6 Bft) SW67.5 230 0 min 27 lux 0 W/m
21.02.2016 18:16 12,5 C 12,7 C 10,7 C 79 % 1007,7 hPa 0,0 l/m 45,3 km/h (6 Bft) W-SW45 240 0 min 17 lux 0 W/m
21.02.2016 18:21 12,5 C 12,7 C 10,7 C 79 % 1007,7 hPa 0,0 l/m 50,2 km/h (7 Bft) W-SW22.5 240 0 min 6 lux 0 W/m
21.02.2016 18:26 12,5 C 12,6 C 10,7 C 79 % 1007,7 hPa 0,0 l/m 51,3 km/h (7 Bft) W-SW45 250 0 min 2 lux 0 W/m
21.02.2016 18:31 12,5 C 12,7 C 10,8 C 79 % 1007,7 hPa 0,0 l/m 53,9 km/h (7 Bft) W-SW67.5 240 0 min 1 lux 0 W/m
21.02.2016 18:36 12,6 C 12,7 C 10,8 C 79 % 1007,7 hPa 0,0 l/m 38,6 km/h (6 Bft) W-SW45 240 0 min 0 lux 0 W/m
21.02.2016 18:41 12,5 C 12,6 C 10,7 C 79 % 1007,7 hPa 0,0 l/m 38,6 km/h (6 Bft) W-SW45 240 0 min 0 lux 0 W/m
21.02.2016 18:46 12,5 C 12,6 C 10,8 C 79 % 1007,7 hPa 0,0 l/m 53,8 km/h (7 Bft) W-SW67.5 250 0 min 0 lux 0 W/m
21.02.2016 18:51 12,5 C 12,7 C 10,9 C 79 % 1007,7 hPa 0,0 l/m 51,8 km/h (7 Bft) W-SW45 250 0 min 0 lux 0 W/m
21.02.2016 18:56 12,5 C 12,6 C 10,6 C 79 % 1007,7 hPa 0,0 l/m 42,0 km/h (6 Bft) W-SW45 245 0 min 0 lux 0 W/m
21.02.2016 19:00 12,4 C 12,6 C 10,7 C 79 % 1007,7 hPa 0,0 l/m 45,4 km/h (6 Bft) W-SW45 250 0 min 0 lux 0 W/m
21.02.2016 19:06 12,5 C 12,6 C 10,9 C 79 % 1007,7 hPa 0,0 l/m 47,3 km/h (6 Bft) SW45 230 0 min 0 lux 0 W/m
21.02.2016 19:11 12,5 C 12,6 C 10,9 C 79 % 1007,7 hPa 0,0 l/m 42,8 km/h (6 Bft) SW45 230 0 min 0 lux 0 W/m
21.02.2016 19:16 12,5 C 12,6 C 10,8 C 79 % 1007,7 hPa 0,0 l/m 44,0 km/h (6 Bft) SW67.5 225 0 min 0 lux 0 W/m
21.02.2016 19:21 12,4 C 12,5 C 10,7 C 79 % 1007,7 hPa 0,0 l/m 39,6 km/h (6 Bft) W-SW45 240 0 min 0 lux 0 W/m
21.02.2016 19:26 12,4 C 12,6 C 10,7 C 79 % 1007,7 hPa 0,0 l/m 46,8 km/h (6 Bft) W-SW22.5 240 0 min 0 lux 0 W/m
21.02.2016 19:31 12,4 C 12,5 C 10,7 C 79 % 1007,7 hPa 0,0 l/m 42,3 km/h (6 Bft) W-SW22.5 250 0 min 0 lux 0 W/m
21.02.2016 19:36 12,4 C 12,5 C 10,8 C 78 % 1007,7 hPa 0,0 l/m 46,9 km/h (6 Bft) SW45 225 0 min 0 lux 0 W/m
21.02.2016 19:41 12,5 C 12,6 C 10,7 C 78 % 1007,7 hPa 0,0 l/m 47,8 km/h (6 Bft) W-SW45 245 0 min 0 lux 0 W/m
21.02.2016 19:45 12,6 C 12,6 C 10,8 C 78 % 1007,7 hPa 0,0 l/m 60,1 km/h (7 Bft) SW45 235 0 min 0 lux 0 W/m
21.02.2016 19:51 12,5 C 12,5 C 10,8 C 78 % 1007,7 hPa 0,0 l/m 50,3 km/h (7 Bft) SW45 230 0 min 0 lux 0 W/m
21.02.2016 19:56 12,4 C 12,5 C 10,8 C 78 % 1007,7 hPa 0,0 l/m 45,1 km/h (6 Bft) W-SW45 240 0 min 0 lux 0 W/m
21.02.2016 20:01 12,4 C 12,5 C 10,9 C 78 % 1007,7 hPa 0,0 l/m 45,1 km/h (6 Bft) W-SW45 240 0 min 0 lux 0 W/m
21.02.2016 20:05 12,4 C 12,5 C 10,9 C 78 % 1007,7 hPa 0,0 l/m 49,5 km/h (7 Bft) W-SW22.5 240 0 min 0 lux 0 W/m
21.02.2016 20:11 12,4 C 12,5 C 10,8 C 78 % 1007,7 hPa 0,0 l/m 51,4 km/h (7 Bft) W-SW45 245 0 min 0 lux 0 W/m
21.02.2016 20:16 12,4 C 12,5 C 10,9 C 78 % 1007,7 hPa 0,0 l/m 51,6 km/h (7 Bft) W-SW45 245 0 min 0 lux 0 W/m
21.02.2016 20:21 12,4 C 12,4 C 10,7 C 78 % 1007,7 hPa 0,0 l/m 44,9 km/h (6 Bft) SW67.5 235 0 min 0 lux 0 W/m
21.02.2016 20:26 12,4 C 12,4 C 10,8 C 78 % 1006,7 hPa 0,0 l/m 46,3 km/h (6 Bft) W-SW67.5 240 0 min 0 lux 0 W/m
21.02.2016 20:30 12,4 C 12,3 C 10,8 C 78 % 1006,7 hPa 0,0 l/m 54,8 km/h (7 Bft) W-SW45 250 0 min 0 lux 0 W/m
21.02.2016 20:36 12,4 C 12,4 C 10,7 C 77 % 1006,7 hPa 0,0 l/m 49,2 km/h (7 Bft) SW45 230 0 min 0 lux 0 W/m
21.02.2016 20:41 12,4 C 12,3 C 10,8 C 77 % 1006,7 hPa 0,0 l/m 44,6 km/h (6 Bft) SW67.5 225 0 min 0 lux 0 W/m
21.02.2016 20:46 12,4 C 12,4 C 10,8 C 77 % 1006,7 hPa 0,0 l/m 49,0 km/h (7 Bft) SW67.5 230 0 min 0 lux 0 W/m
21.02.2016 20:51 12,3 C 12,3 C 10,8 C 78 % 1006,7 hPa 0,0 l/m 45,8 km/h (6 Bft) W-SW45 240 0 min 0 lux 0 W/m
21.02.2016 20:56 12,3 C 12,3 C 10,7 C 78 % 1006,7 hPa 0,0 l/m 44,0 km/h (6 Bft) W-SW67.5 240 0 min 0 lux 0 W/m
21.02.2016 21:01 12,3 C 12,3 C 10,7 C 78 % 1006,7 hPa 0,0 l/m 46,4 km/h (6 Bft) W-SW45 240 0 min 0 lux 0 W/m
21.02.2016 21:06 12,3 C 12,2 C 10,8 C 78 % 1006,7 hPa 0,0 l/m 47,8 km/h (6 Bft) W-SW67.5 240 0 min 0 lux 0 W/m
21.02.2016 21:11 12,2 C 12,1 C 10,7 C 78 % 1007,7 hPa 0,0 l/m 46,7 km/h (6 Bft) SW45 235 0 min 0 lux 0 W/m
21.02.2016 21:15 12,2 C 12,1 C 10,6 C 78 % 1007,7 hPa 0,0 l/m 39,6 km/h (6 Bft) SW45 235 0 min 0 lux 0 W/m
21.02.2016 21:21 12,0 C 12,0 C 10,6 C 79 % 1007,7 hPa 0,0 l/m 40,0 km/h (6 Bft) W-SW45 245 0 min 0 lux 0 W/m
21.02.2016 21:26 12,0 C 12,0 C 10,5 C 79 % 1007,7 hPa 0,0 l/m 50,8 km/h (7 Bft) W-SW67.5 245 0 min 0 lux 0 W/m
21.02.2016 21:31 12,0 C 11,9 C 10,7 C 79 % 1006,7 hPa 0,0 l/m 50,8 km/h (7 Bft) SW67.5 230 0 min 0 lux 0 W/m
21.02.2016 21:36 12,0 C 11,8 C 10,6 C 79 % 1006,7 hPa 0,0 l/m 58,6 km/h (7 Bft) SW45 235 0 min 0 lux 0 W/m
21.02.2016 21:41 12,0 C 11,8 C 10,4 C 79 % 1006,7 hPa 0,0 l/m 41,9 km/h (6 Bft) W-SW45 240 0 min 0 lux 0 W/m
21.02.2016 21:46 11,9 C 11,8 C 10,5 C 80 % 1006,7 hPa 0,0 l/m 41,9 km/h (6 Bft) W-SW45 240 0 min 0 lux 0 W/m
21.02.2016 21:51 11,8 C 11,8 C 10,5 C 79 % 1006,7 hPa 0,0 l/m 37,1 km/h (5 Bft) W-SW45 240 0 min 0 lux 0 W/m
21.02.2016 21:56 11,9 C 11,9 C 10,6 C 79 % 1006,7 hPa 0,0 l/m 46,9 km/h (6 Bft) SW67.5 235 0 min 0 lux 0 W/m
21.02.2016 22:01 11,9 C 11,8 C 10,5 C 79 % 1006,7 hPa 0,0 l/m 47,3 km/h (6 Bft) W-SW45 245 0 min 0 lux 0 W/m
21.02.2016 22:06 11,9 C 11,7 C 10,4 C 79 % 1006,7 hPa 0,0 l/m 51,1 km/h (7 Bft) W-SW22.5 245 0 min 0 lux 0 W/m
21.02.2016 22:11 11,8 C 11,6 C 10,5 C 79 % 1006,7 hPa 0,0 l/m 45,2 km/h (6 Bft) W-SW22.5 245 0 min 0 lux 0 W/m
21.02.2016 22:16 11,8 C 11,5 C 10,7 C 79 % 1006,7 hPa 0,0 l/m 46,2 km/h (6 Bft) W-SW67.5 240 0 min 0 lux 0 W/m
21.02.2016 22:21 12,0 C 11,8 C 10,7 C 77 % 1006,7 hPa 0,0 l/m 70,1 km/h (8 Bft) W-SW45 240 0 min 0 lux 0 W/m
21.02.2016 22:25 12,0 C 11,8 C 10,6 C 77 % 1006,7 hPa 0,0 l/m 47,2 km/h (6 Bft) W-SW45 250 0 min 0 lux 0 W/m
21.02.2016 22:31 12,0 C 11,7 C 10,6 C 77 % 1006,7 hPa 0,0 l/m 56,6 km/h (7 Bft) W-SW22.5 240 0 min 0 lux 0 W/m
21.02.2016 22:36 11,8 C 11,7 C 10,5 C 78 % 1006,7 hPa 0,0 l/m 45,3 km/h (6 Bft) SW22.5 235 0 min 0 lux 0 W/m
21.02.2016 22:41 11,8 C 11,7 C 10,5 C 77 % 1006,7 hPa 0,0 l/m 58,7 km/h (7 Bft) SW45 230 0 min 0 lux 0 W/m
21.02.2016 22:46 11,8 C 11,6 C 10,5 C 77 % 1006,7 hPa 0,0 l/m 58,7 km/h (7 Bft) W-SW67.5 240 0 min 0 lux 0 W/m
21.02.2016 22:50 11,8 C 11,6 C 10,4 C 77 % 1006,7 hPa 0,0 l/m 47,9 km/h (6 Bft) W-SW45 250 0 min 0 lux 0 W/m
21.02.2016 22:56 11,8 C 11,6 C 10,6 C 76 % 1006,7 hPa 0,0 l/m 54,4 km/h (7 Bft) W-SW67.5 250 0 min 0 lux 0 W/m
21.02.2016 23:01 11,8 C 11,6 C 10,4 C 77 % 1006,7 hPa 0,0 l/m 48,5 km/h (6 Bft) SW45 220 0 min 0 lux 0 W/m
21.02.2016 23:06 11,9 C 11,6 C 10,5 C 75 % 1006,7 hPa 0,0 l/m 55,9 km/h (7 Bft) SW67.5 230 0 min 0 lux 0 W/m
21.02.2016 23:10 11,8 C 11,6 C 10,4 C 75 % 1006,7 hPa 0,0 l/m 56,8 km/h (7 Bft) SW22.5 235 0 min 0 lux 0 W/m
21.02.2016 23:16 11,9 C 11,6 C 10,5 C 75 % 1006,7 hPa 0,0 l/m 39,7 km/h (6 Bft) SW22.5 235 0 min 0 lux 0 W/m
21.02.2016 23:21 11,8 C 11,5 C 10,4 C 75 % 1006,7 hPa 0,0 l/m 51,6 km/h (7 Bft) SW45 235 0 min 0 lux 0 W/m
21.02.2016 23:26 11,8 C 11,4 C 10,4 C 75 % 1006,7 hPa 0,0 l/m 42,8 km/h (6 Bft) SW67.5 230 0 min 0 lux 0 W/m
21.02.2016 23:31 11,8 C 11,4 C 10,4 C 75 % 1006,7 hPa 0,0 l/m 45,3 km/h (6 Bft) SW67.5 225 0 min 0 lux 0 W/m
21.02.2016 23:35 11,8 C 11,4 C 10,4 C 75 % 1006,7 hPa 0,0 l/m 46,3 km/h (6 Bft) SW45 230 0 min 0 lux 0 W/m
21.02.2016 23:41 11,8 C 11,5 C 10,4 C 75 % 1006,7 hPa 0,0 l/m 53,0 km/h (7 Bft) SW45 235 0 min 0 lux 0 W/m
21.02.2016 23:46 11,9 C 11,6 C 10,5 C 75 % 1006,7 hPa 0,0 l/m 50,6 km/h (7 Bft) SW67.5 230 0 min 0 lux 0 W/m
21.02.2016 23:51 11,9 C 11,7 C 10,5 C 75 % 1006,7 hPa 0,0 l/m 52,0 km/h (7 Bft) SW45 235 0 min 0 lux 0 W/m
21.02.2016 23:56 11,8 C 11,6 C 10,4 C 76 % 1006,7 hPa 0,0 l/m 48,1 km/h (6 Bft) SW67.5 230 0 min 0 lux 0 W/m
_ Min-Zeit 00:01 23:26 00:01 23:06 00:11 - 04:21 - - - - -
Minimum _ 10,2 C 11,4 C 8,4 C 75 % 1005,8 hPa - 27,4 km/h (5 Bft) - - - - -
_ Max-Zeit 18:36 01:11 18:51 00:01 07:26 02:56 22:21 - - 00:01 13:56 13:56
Maximum _ 12,6 C 16,4 C 10,9 C 89 % 1009,8 hPa 0,4 l/m 70,1 km/h
W-SW (8 Bft)
- - 0 min 7,20 klux 49 W/m
Durchschnitt _ 11,1 C 13,1 C 9,4 C 84 % 1008,2 hPa #0,7 l/m 43,3 km/h (6 Bft) W-SW - #0 min. 1,45 klux 23 W/m